Home > Weather > Sioux City > Past weeks

Flag for U.S.A. Weather for the Past 2 Weeks in Sioux City, Iowa, U.S.A.

Now
31 °F

Mostly cloudy.


Feels Like: 24 °F
Forecast: 18 / 36 °F
Wind: 7 mph from Northwest

Location: Sioux Gateway Airport

Current Time: Feb 5, 2016 at 10:11:58 PM

Latest Report: Feb 5, 2016 at 9:52 PM


Visibility: 8 mi

Pressure: 30.28 "Hg

Humidity: 82%

Dew point: 26 °F

Location of Sioux CityLocation

Historic Weather in Sioux City — Graph

°F

Sioux City Temperature Yesterday

Maximum temperature yesterday: 30 °F (at 12:52 PM)
Minimum temperature yesterday: 9 °F (at 11:52 PM)
Average temperature yesterday: 18 °F

High & Low Weather Summary for the Past Weeks

 TemperatureHumidityPressure
High43 °F (Jan 29, 2:52 PM)92% (Jan 31, 4:52 AM)30.50 "Hg (Jan 31, 4:52 AM)
Low7 °F (Feb 3, 10:52 PM)60% (Jan 27, 12:52 PM)29.55 "Hg (Jan 30, 2:52 PM)
Average28 °F79%30.00 "Hg
* Reported Jan 21 8:52 PM — Feb 5 8:52 PM, Sioux City, Weather by CustomWeather, © 2016

Note: Actual official high and low records may vary slightly from our data, if they occured in-between our weather recording intervals... More about our weather records

Advertising

Sioux City Weather History for the Previous 24 Hours

 ConditionsComfort  
Time TempWeatherWind HumidityBarometerVisibility
8:52 PM
Fri, Feb 5
29 °FIce fog.No wind85%30.28 "Hg5 mi
7:52 PM29 °FIce fog.3 mph85%30.28 "Hg5 mi
6:52 PM30 °FOvercast.3 mph82%30.27 "Hg8 mi
5:52 PM30 °FOvercast.5 mph82%30.26 "Hg8 mi
4:52 PM31 °FMore clouds than sun.7 mph79%30.27 "Hg8 mi
3:52 PM31 °FOvercast.10 mph79%30.26 "Hg9 mi
2:52 PM30 °FOvercast.13 mph79%30.26 "Hg9 mi
1:52 PM30 °FMostly cloudy.10 mph79%30.27 "Hg10 mi
12:52 PM29 °FOvercast.15 mph79%30.30 "Hg4 mi
11:52 AM29 °FLight snow. Mostly cloudy.16 mph79%30.33 "Hg6 mi
10:52 AM27 °FOvercast.20 mph81%30.36 "Hg5 mi
9:52 AM22 °FIce fog.6 mph85%30.36 "Hg6 mi
8:52 AM18 °FMostly cloudy.10 mph80%30.37 "Hg6 mi
7:52 AM13 °FIce fog.12 mph84%30.37 "Hg6 mi
6:52 AM11 °FPassing clouds.9 mph81%30.37 "Hg7 mi
5:52 AM8 °FClear.7 mph79%30.37 "Hg7 mi
4:52 AM7 °FClear.8 mph83%30.36 "Hg8 mi
3:52 AM8 °FClear.8 mph83%30.36 "Hg7 mi
2:52 AM9 °FClear.7 mph80%30.38 "Hg7 mi
1:52 AM8 °FClear.6 mph83%30.38 "Hg8 mi
12:52 AM10 °FClear.6 mph84%30.39 "Hg7 mi
11:52 PM
Thu, Feb 4
9 °FClear.5 mph84%30.39 "Hg8 mi
10:52 PM11 °FClear.5 mph84%30.39 "Hg8 mi
Weather by CustomWeather, © 2016

See weather overviewHow to use our weather pages